Time,TemperatureF,DewpointF,PressureIn,WindDirection,WindDirectionDegrees,WindSpeedMPH,WindSpeedGustMPH,Humidity,HourlyPrecipIn,Conditions,Clouds,dailyrainin,SoftwareType,DateUTC
2013-05-29 00:00:00,52.7,44.6,29.50,ESE,108,2.0,6.0,74,0.00,,,0.01,Wunderground v.1.15,2013-05-29 06:00:00,
2013-05-29 00:05:00,52.6,44.9,29.50,ESE,105,3.0,9.0,75,0.00,,,0.00,Wunderground v.1.15,2013-05-29 06:05:00,
2013-05-29 00:11:00,52.4,45.1,29.51,ESE,122,5.0,5.0,76,0.00,,,0.00,Wunderground v.1.15,2013-05-29 06:11:00,
2013-05-29 00:17:00,52.0,45.0,29.51,ESE,116,5.0,10.0,77,0.00,,,0.00,Wunderground v.1.15,2013-05-29 06:17:00,
2013-05-29 00:22:00,51.7,45.1,29.52,ESE,105,4.0,7.0,78,0.00,,,0.01,Wunderground v.1.15,2013-05-29 06:22:00,
2013-05-29 00:28:00,51.3,45.0,29.51,ESE,111,5.0,9.0,79,0.00,,,0.01,Wunderground v.1.15,2013-05-29 06:28:00,
2013-05-29 00:33:00,51.1,45.1,29.52,ESE,116,5.0,5.0,80,0.00,,,0.01,Wunderground v.1.15,2013-05-29 06:33:00,
2013-05-29 00:38:00,51.0,45.0,29.52,ESE,116,3.0,6.0,80,0.00,,,0.01,Wunderground v.1.15,2013-05-29 06:38:00,
2013-05-29 00:43:00,50.8,44.9,29.51,ESE,122,1.0,2.0,80,0.00,,,0.01,Wunderground v.1.15,2013-05-29 06:43:00,
2013-05-29 00:48:00,50.7,45.1,29.52,South,177,1.0,2.0,81,0.00,,,0.02,Wunderground v.1.15,2013-05-29 06:48:00,
2013-05-29 00:53:00,50.6,45.0,29.51,South,175,1.0,2.0,81,0.00,,,0.02,Wunderground v.1.15,2013-05-29 06:53:00,
2013-05-29 00:59:00,50.6,45.0,29.51,South,175,1.0,1.0,81,0.00,,,0.02,Wunderground v.1.15,2013-05-29 06:59:00,
2013-05-29 01:05:00,50.6,45.3,29.51,ESE,118,0.0,3.0,82,0.00,,,0.02,Wunderground v.1.15,2013-05-29 07:05:00,
2013-05-29 01:10:00,50.7,45.4,29.51,SSE,165,1.0,2.0,82,0.00,,,0.02,Wunderground v.1.15,2013-05-29 07:10:00,
2013-05-29 01:16:00,50.8,45.5,29.51,SSE,165,1.0,2.0,82,0.00,,,0.02,Wunderground v.1.15,2013-05-29 07:16:00,
2013-05-29 01:22:00,50.8,45.2,29.51,South,170,0.0,4.0,81,0.00,,,0.02,Wunderground v.1.15,2013-05-29 07:22:00,
2013-05-29 01:27:00,50.9,44.9,29.51,South,169,1.0,4.0,80,0.00,,,0.02,Wunderground v.1.15,2013-05-29 07:27:00,
2013-05-29 01:34:00,51.0,44.4,29.50,SSE,149,1.0,1.0,78,0.00,,,0.02,Wunderground v.1.15,2013-05-29 07:34:00,
2013-05-29 01:40:00,51.0,44.4,29.51,SSE,153,0.0,1.0,78,0.00,,,0.02,Wunderground v.1.15,2013-05-29 07:40:00,
2013-05-29 01:45:00,51.0,43.7,29.50,SSE,152,1.0,2.0,76,0.00,,,0.02,Wunderground v.1.15,2013-05-29 07:45:00,
2013-05-29 01:52:00,50.8,43.5,29.50,ESE,109,2.0,4.0,76,0.00,,,0.02,Wunderground v.1.15,2013-05-29 07:52:00,
2013-05-29 01:58:00,50.6,43.7,29.50,ESE,109,2.0,4.0,77,0.00,,,0.02,Wunderground v.1.15,2013-05-29 07:58:00,
2013-05-29 02:05:00,50.5,43.6,29.50,ESE,105,1.0,4.0,77,0.00,,,0.02,Wunderground v.1.15,2013-05-29 08:05:00,
2013-05-29 02:11:00,50.4,43.5,29.50,ESE,105,0.0,1.0,77,0.00,,,0.02,Wunderground v.1.15,2013-05-29 08:11:00,
2013-05-29 02:16:00,50.3,43.7,29.50,ESE,105,0.0,1.0,78,0.00,,,0.02,Wunderground v.1.15,2013-05-29 08:16:00,
2013-05-29 02:21:00,50.2,43.6,29.50,ESE,105,0.0,0.0,78,0.00,,,0.02,Wunderground v.1.15,2013-05-29 08:21:00,
2013-05-29 02:27:00,50.1,43.8,29.50,ESE,105,0.0,0.0,79,0.00,,,0.02,Wunderground v.1.15,2013-05-29 08:27:00,
2013-05-29 02:33:00,49.7,43.5,29.51,ESE,106,0.0,1.0,79,0.00,,,0.02,Wunderground v.1.15,2013-05-29 08:33:00,
2013-05-29 02:38:00,49.4,43.5,29.51,ESE,106,0.0,1.0,80,0.00,,,0.02,Wunderground v.1.15,2013-05-29 08:38:00,
2013-05-29 02:43:00,49.0,43.1,29.51,ESE,106,0.0,0.0,80,0.00,,,0.02,Wunderground v.1.15,2013-05-29 08:43:00,
2013-05-29 02:48:00,48.7,43.1,29.52,ESE,106,0.0,0.0,81,0.00,,,0.02,Wunderground v.1.15,2013-05-29 08:48:00,
2013-05-29 02:53:00,48.3,42.7,29.52,ESE,105,0.0,1.0,81,0.00,,,0.02,Wunderground v.1.15,2013-05-29 08:53:00,
2013-05-29 02:59:00,48.1,42.9,29.52,ESE,105,0.0,1.0,82,0.00,,,0.02,Wunderground v.1.15,2013-05-29 08:59:00,
2013-05-29 03:05:00,48.1,43.2,29.52,ESE,106,0.0,2.0,83,0.00,,,0.02,Wunderground v.1.15,2013-05-29 09:05:00,
2013-05-29 03:10:00,48.3,43.4,29.52,ESE,107,0.0,1.0,83,0.00,,,0.02,Wunderground v.1.15,2013-05-29 09:10:00,
2013-05-29 03:17:00,48.5,43.6,29.52,ESE,107,0.0,1.0,83,0.00,,,0.02,Wunderground v.1.15,2013-05-29 09:17:00,
2013-05-29 03:23:00,48.5,43.6,29.52,ESE,107,0.0,1.0,83,0.00,,,0.02,Wunderground v.1.15,2013-05-29 09:23:00,
2013-05-29 03:28:00,48.7,44.1,29.52,ESE,107,0.0,2.0,84,0.00,,,0.02,Wunderground v.1.15,2013-05-29 09:28:00,
2013-05-29 03:33:00,48.7,43.8,29.52,ESE,107,1.0,1.0,83,0.00,,,0.02,Wunderground v.1.15,2013-05-29 09:33:00,
2013-05-29 03:38:00,48.6,43.7,29.52,ESE,107,0.0,1.0,83,0.00,,,0.02,Wunderground v.1.15,2013-05-29 09:38:00,
2013-05-29 03:44:00,48.5,43.6,29.52,ESE,107,0.0,0.0,83,0.00,,,0.02,Wunderground v.1.15,2013-05-29 09:44:00,
2013-05-29 03:49:00,48.4,43.5,29.51,ESE,107,0.0,0.0,83,0.00,,,0.02,Wunderground v.1.15,2013-05-29 09:49:00,
2013-05-29 03:54:00,48.2,43.3,29.52,ESE,107,0.0,1.0,83,0.00,,,0.02,Wunderground v.1.15,2013-05-29 09:54:00,
2013-05-29 03:59:00,48.2,43.3,29.52,ESE,107,0.0,1.0,83,0.00,,,0.02,Wunderground v.1.15,2013-05-29 09:59:00,
2013-05-29 04:05:00,48.0,43.1,29.52,ESE,107,0.0,0.0,83,0.00,,,0.02,Wunderground v.1.15,2013-05-29 10:05:00,
2013-05-29 04:11:00,47.7,42.8,29.52,East,100,0.0,2.0,83,0.00,,,0.02,Wunderground v.1.15,2013-05-29 10:11:00,
2013-05-29 04:17:00,47.6,43.0,29.52,East,100,1.0,3.0,84,0.00,,,0.02,Wunderground v.1.15,2013-05-29 10:17:00,
2013-05-29 04:22:00,47.5,43.2,29.53,North,355,0.0,1.0,85,0.00,,,0.02,Wunderground v.1.15,2013-05-29 10:22:00,
2013-05-29 04:27:00,47.7,43.4,29.53,North,355,0.0,1.0,85,0.00,,,0.02,Wunderground v.1.15,2013-05-29 10:27:00,
2013-05-29 04:33:00,47.8,43.5,29.53,North,355,0.0,2.0,85,0.00,,,0.02,Wunderground v.1.15,2013-05-29 10:33:00,
2013-05-29 04:38:00,48.0,44.0,29.52,North,349,0.0,2.0,86,0.00,,,0.02,Wunderground v.1.15,2013-05-29 10:38:00,
2013-05-29 04:45:00,48.0,43.7,29.52,North,349,0.0,0.0,85,0.00,,,0.02,Wunderground v.1.15,2013-05-29 10:45:00,
2013-05-29 04:52:00,47.9,43.6,29.52,North,349,0.0,0.0,85,0.00,,,0.02,Wunderground v.1.15,2013-05-29 10:52:00,
2013-05-29 04:58:00,47.7,43.1,29.52,North,349,0.0,0.0,84,0.00,,,0.02,Wunderground v.1.15,2013-05-29 10:58:00,
2013-05-29 05:03:00,47.6,43.3,29.52,North,349,0.0,0.0,85,0.00,,,0.02,Wunderground v.1.15,2013-05-29 11:03:00,
2013-05-29 05:08:00,47.4,42.8,29.52,North,349,0.0,0.0,84,0.00,,,0.02,Wunderground v.1.15,2013-05-29 11:08:00,
2013-05-29 05:14:00,47.1,42.8,29.52,North,349,0.0,0.0,85,0.00,,,0.02,Wunderground v.1.15,2013-05-29 11:14:00,
2013-05-29 05:19:00,46.9,42.6,29.52,NNW,348,0.0,2.0,85,0.00,,,0.02,Wunderground v.1.15,2013-05-29 11:19:00,
2013-05-29 05:24:00,46.9,42.6,29.52,NNW,348,0.0,0.0,85,0.00,,,0.02,Wunderground v.1.15,2013-05-29 11:24:00,
2013-05-29 05:29:00,46.7,42.4,29.52,NNW,348,0.0,0.0,85,0.00,,,0.02,Wunderground v.1.15,2013-05-29 11:29:00,
2013-05-29 05:34:00,46.7,42.7,29.53,NNW,348,0.0,0.0,86,0.00,,,0.02,Wunderground v.1.15,2013-05-29 11:34:00,
2013-05-29 05:39:00,46.7,42.7,29.53,NNW,348,0.0,1.0,86,0.00,,,0.02,Wunderground v.1.15,2013-05-29 11:39:00,
2013-05-29 05:44:00,46.7,42.7,29.53,NNW,348,0.0,2.0,86,0.00,,,0.02,Wunderground v.1.15,2013-05-29 11:44:00,
2013-05-29 05:49:00,47.0,43.3,29.53,NNW,348,0.0,2.0,87,0.00,,,0.02,Wunderground v.1.15,2013-05-29 11:49:00,
2013-05-29 05:55:00,47.2,43.5,29.53,NNW,348,0.0,2.0,87,0.00,,,0.02,Wunderground v.1.15,2013-05-29 11:55:00,
2013-05-29 06:00:00,47.3,43.6,29.53,NNW,348,0.0,0.0,87,0.00,,,0.02,Wunderground v.1.15,2013-05-29 12:00:00,
2013-05-29 06:05:00,47.4,43.7,29.54,NNW,348,0.0,1.0,87,0.00,,,0.02,Wunderground v.1.15,2013-05-29 12:05:00,
2013-05-29 06:11:00,47.6,43.9,29.54,NNW,348,0.0,0.0,87,0.00,,,0.02,Wunderground v.1.15,2013-05-29 12:11:00,
2013-05-29 06:16:00,47.7,44.0,29.54,NNW,348,0.0,1.0,87,0.00,,,0.02,Wunderground v.1.15,2013-05-29 12:16:00,
2013-05-29 06:21:00,47.9,44.2,29.54,NNW,348,0.0,0.0,87,0.00,,,0.03,Wunderground v.1.15,2013-05-29 12:21:00,
2013-05-29 06:26:00,48.1,44.4,29.55,NNW,339,1.0,2.0,87,0.00,,,0.03,Wunderground v.1.15,2013-05-29 12:26:00,
2013-05-29 06:33:00,48.3,44.6,29.55,NNW,338,1.0,3.0,87,0.00,,,0.03,Wunderground v.1.15,2013-05-29 12:33:00,
2013-05-29 06:39:00,48.5,44.8,29.55,NNW,338,1.0,3.0,87,0.00,,,0.03,Wunderground v.1.15,2013-05-29 12:39:00,
2013-05-29 06:44:00,48.6,44.9,29.56,NNW,338,1.0,2.0,87,0.00,,,0.03,Wunderground v.1.15,2013-05-29 12:44:00,
2013-05-29 06:49:00,49.0,45.3,29.56,NNW,331,2.0,3.0,87,0.00,,,0.03,Wunderground v.1.15,2013-05-29 12:49:00,
2013-05-29 06:56:00,49.5,45.5,29.56,NNW,327,2.0,2.0,86,0.00,,,0.03,Wunderground v.1.15,2013-05-29 12:56:00,
2013-05-29 07:02:00,49.7,45.4,29.57,NW,325,2.0,2.0,85,0.00,,,0.03,Wunderground v.1.15,2013-05-29 13:02:00,
2013-05-29 07:07:00,49.9,45.6,29.57,NW,325,1.0,2.0,85,0.00,,,0.03,Wunderground v.1.15,2013-05-29 13:07:00,
2013-05-29 07:13:00,50.0,45.7,29.57,NW,324,1.0,3.0,85,0.00,,,0.03,Wunderground v.1.15,2013-05-29 13:13:00,
2013-05-29 07:19:00,50.1,45.8,29.57,NW,323,1.0,3.0,85,0.00,,,0.03,Wunderground v.1.15,2013-05-29 13:19:00,
2013-05-29 07:27:00,50.2,45.9,29.57,NW,318,1.0,1.0,85,0.00,,,0.03,Wunderground v.1.15,2013-05-29 13:27:00,
2013-05-29 07:33:00,50.3,46.0,29.57,NW,318,1.0,1.0,85,0.00,,,0.03,Wunderground v.1.15,2013-05-29 13:33:00,
2013-05-29 07:38:00,50.4,46.1,29.57,NW,320,1.0,4.0,85,0.00,,,0.03,Wunderground v.1.15,2013-05-29 13:38:00,
2013-05-29 07:43:00,50.3,46.0,29.57,NW,322,2.0,2.0,85,0.00,,,0.03,Wunderground v.1.15,2013-05-29 13:43:00,
2013-05-29 07:48:00,50.3,45.6,29.57,NW,321,2.0,3.0,84,0.00,,,0.03,Wunderground v.1.15,2013-05-29 13:48:00,
2013-05-29 07:55:00,50.4,45.7,29.57,NW,321,1.0,2.0,84,0.00,,,0.03,Wunderground v.1.15,2013-05-29 13:55:00,
2013-05-29 08:00:00,50.4,45.4,29.57,NW,321,0.0,0.0,83,0.00,,,0.03,Wunderground v.1.15,2013-05-29 14:00:00,
2013-05-29 08:05:00,50.4,45.4,29.57,NW,321,0.0,1.0,83,0.00,,,0.03,Wunderground v.1.15,2013-05-29 14:05:00,
2013-05-29 08:12:00,51.5,46.2,29.57,NW,321,1.0,2.0,82,0.00,,,0.03,Wunderground v.1.15,2013-05-29 14:12:00,
2013-05-29 08:17:00,52.4,46.4,29.57,NNW,331,1.0,3.0,80,0.00,,,0.03,Wunderground v.1.15,2013-05-29 14:17:00,
2013-05-29 08:23:00,53.4,46.7,29.57,NNW,342,2.0,2.0,78,0.00,,,0.03,Wunderground v.1.15,2013-05-29 14:23:00,
2013-05-29 08:28:00,54.0,47.0,29.57,NNW,339,2.0,2.0,77,0.00,,,0.03,Wunderground v.1.15,2013-05-29 14:28:00,
2013-05-29 08:34:00,54.5,46.4,29.57,NNW,336,1.0,1.0,74,0.00,,,0.03,Wunderground v.1.15,2013-05-29 14:34:00,
2013-05-29 08:39:00,55.1,46.6,29.57,NNW,343,2.0,5.0,73,0.00,,,0.03,Wunderground v.1.15,2013-05-29 14:39:00,
2013-05-29 08:45:00,55.8,46.9,29.57,WNW,284,2.0,4.0,72,0.00,,,0.03,Wunderground v.1.15,2013-05-29 14:45:00,
2013-05-29 08:50:00,56.2,46.5,29.57,NNW,345,2.0,4.0,70,0.00,,,0.03,Wunderground v.1.15,2013-05-29 14:50:00,
2013-05-29 08:55:00,56.4,46.4,29.57,North,350,2.0,5.0,69,0.00,,,0.03,Wunderground v.1.15,2013-05-29 14:55:00,
2013-05-29 09:00:00,56.8,46.7,29.57,NNE,21,3.0,4.0,69,0.00,,,0.03,Wunderground v.1.15,2013-05-29 15:00:00,
2013-05-29 09:06:00,57.0,46.5,29.57,North,5,3.0,4.0,68,0.00,,,0.03,Wunderground v.1.15,2013-05-29 15:06:00,
2013-05-29 09:14:00,57.4,47.3,29.57,NNE,17,3.0,3.0,69,0.00,,,0.03,Wunderground v.1.15,2013-05-29 15:14:00,
2013-05-29 09:20:00,58.0,46.3,29.57,North,5,3.0,3.0,65,0.00,,,0.03,Wunderground v.1.15,2013-05-29 15:20:00,
2013-05-29 09:25:00,58.8,46.6,29.57,North,9,3.0,5.0,64,0.00,,,0.03,Wunderground v.1.15,2013-05-29 15:25:00,
2013-05-29 09:30:00,59.1,45.7,29.57,NNE,17,2.0,3.0,61,0.00,,,0.03,Wunderground v.1.15,2013-05-29 15:30:00,
2013-05-29 09:36:00,59.0,46.4,29.57,North,5,2.0,3.0,63,0.00,,,0.03,Wunderground v.1.15,2013-05-29 15:36:00,
2013-05-29 09:41:00,59.3,45.8,29.57,NNW,329,3.0,3.0,61,0.00,,,0.03,Wunderground v.1.15,2013-05-29 15:41:00,
2013-05-29 09:46:00,60.0,44.3,29.57,NNW,336,2.0,3.0,56,0.00,,,0.03,Wunderground v.1.15,2013-05-29 15:46:00,
2013-05-29 09:51:00,60.5,44.7,29.57,WNW,284,2.0,6.0,56,0.00,,,0.03,Wunderground v.1.15,2013-05-29 15:51:00,
2013-05-29 09:56:00,60.8,43.6,29.57,NW,321,2.0,6.0,53,0.00,,,0.03,Wunderground v.1.15,2013-05-29 15:56:00,
2013-05-29 10:01:00,60.8,44.5,29.57,North,355,2.0,6.0,55,0.00,,,0.03,Wunderground v.1.15,2013-05-29 16:01:00,
2013-05-29 10:07:00,60.7,42.5,29.56,North,355,2.0,6.0,51,0.00,,,0.03,Wunderground v.1.15,2013-05-29 16:07:00,
2013-05-29 10:12:00,60.2,43.0,29.56,North,5,1.0,2.0,53,0.00,,,0.03,Wunderground v.1.15,2013-05-29 16:12:00,
2013-05-29 10:18:00,59.7,41.5,29.56,North,5,1.0,3.0,51,0.00,,,0.03,Wunderground v.1.15,2013-05-29 16:18:00,
2013-05-29 10:23:00,59.7,41.5,29.56,North,5,1.0,1.0,51,0.00,,,0.03,Wunderground v.1.15,2013-05-29 16:23:00,
2013-05-29 10:29:00,60.6,41.8,29.56,NNW,330,2.0,6.0,50,0.00,,,0.03,Wunderground v.1.15,2013-05-29 16:29:00,
2013-05-29 10:34:00,61.2,39.7,29.56,NNE,17,3.0,5.0,45,0.00,,,0.03,Wunderground v.1.15,2013-05-29 16:34:00,
2013-05-29 10:39:00,61.3,40.3,29.56,NNW,336,4.0,7.0,46,0.00,,,0.03,Wunderground v.1.15,2013-05-29 16:39:00,
2013-05-29 10:46:00,61.4,39.9,29.56,WNW,300,2.0,6.0,45,0.00,,,0.03,Wunderground v.1.15,2013-05-29 16:46:00,
2013-05-29 10:52:00,61.6,38.9,29.56,NW,321,2.0,2.0,43,0.00,,,0.03,Wunderground v.1.15,2013-05-29 16:52:00,
2013-05-29 10:57:00,62.1,38.7,29.56,WNW,298,2.0,4.0,42,0.00,,,0.03,Wunderground v.1.15,2013-05-29 16:57:00,
2013-05-29 11:03:00,62.7,38.6,29.56,NW,305,2.0,2.0,41,0.00,,,0.03,Wunderground v.1.15,2013-05-29 17:03:00,
2013-05-29 11:09:00,62.9,38.2,29.56,NNW,340,1.0,4.0,40,0.00,,,0.03,Wunderground v.1.15,2013-05-29 17:09:00,
2013-05-29 11:14:00,63.5,36.7,29.56,WNW,300,3.0,5.0,37,0.00,,,0.03,Wunderground v.1.15,2013-05-29 17:14:00,
2013-05-29 11:19:00,63.7,37.6,29.56,NW,306,2.0,2.0,38,0.00,,,0.03,Wunderground v.1.15,2013-05-29 17:19:00,
2013-05-29 11:24:00,64.0,38.5,29.56,NW,306,1.0,2.0,39,0.00,,,0.03,Wunderground v.1.15,2013-05-29 17:24:00,
2013-05-29 11:30:00,63.9,37.1,29.56,SW,225,2.0,3.0,37,0.00,,,0.03,Wunderground v.1.15,2013-05-29 17:30:00,
2013-05-29 11:35:00,63.5,38.7,29.56,SSW,200,3.0,3.0,40,0.00,,,0.03,Wunderground v.1.15,2013-05-29 17:35:00,
2013-05-29 11:40:00,63.7,37.6,29.56,SSW,207,2.0,7.0,38,0.00,,,0.03,Wunderground v.1.15,2013-05-29 17:40:00,
2013-05-29 11:45:00,63.4,37.3,29.56,South,182,3.0,11.0,38,0.00,,,0.03,Wunderground v.1.15,2013-05-29 17:45:00,
2013-05-29 11:50:00,64.5,37.6,29.56,NW,316,3.0,4.0,37,0.00,,,0.03,Wunderground v.1.15,2013-05-29 17:50:00,
2013-05-29 11:56:00,66.4,37.2,29.55,SW,217,2.0,4.0,34,0.00,,,0.03,Wunderground v.1.15,2013-05-29 17:56:00,
2013-05-29 12:02:00,66.7,39.6,29.56,SW,232,3.0,5.0,37,0.00,,,0.03,Wunderground v.1.15,2013-05-29 18:02:00,
2013-05-29 12:07:00,66.2,37.0,29.55,ESE,116,2.0,5.0,34,0.00,,,0.03,Wunderground v.1.15,2013-05-29 18:07:00,
2013-05-29 12:13:00,65.8,37.4,29.55,SSW,206,2.0,3.0,35,0.00,,,0.03,Wunderground v.1.15,2013-05-29 18:13:00,
2013-05-29 12:18:00,66.2,37.0,29.55,WSW,240,3.0,6.0,34,0.00,,,0.03,Wunderground v.1.15,2013-05-29 18:18:00,
2013-05-29 12:23:00,66.8,36.0,29.55,SW,230,3.0,6.0,32,0.00,,,0.03,Wunderground v.1.15,2013-05-29 18:23:00,
2013-05-29 12:29:00,66.1,35.4,29.55,WSW,255,3.0,6.0,32,0.00,,,0.03,Wunderground v.1.15,2013-05-29 18:29:00,
2013-05-29 12:34:00,66.1,35.4,29.54,SW,224,2.0,3.0,32,0.00,,,0.03,Wunderground v.1.15,2013-05-29 18:34:00,
2013-05-29 12:39:00,65.9,36.7,29.54,West,281,3.0,9.0,34,0.00,,,0.03,Wunderground v.1.15,2013-05-29 18:39:00,
2013-05-29 12:45:00,66.6,36.6,29.54,NNW,327,4.0,4.0,33,0.00,,,0.03,Wunderground v.1.15,2013-05-29 18:45:00,
2013-05-29 12:51:00,65.9,36.0,29.54,SW,215,4.0,5.0,33,0.00,,,0.03,Wunderground v.1.15,2013-05-29 18:51:00,
2013-05-29 12:57:00,65.5,35.6,29.54,WSW,257,4.0,7.0,33,0.00,,,0.03,Wunderground v.1.15,2013-05-29 18:57:00,
2013-05-29 13:02:00,65.8,35.9,29.54,SW,234,3.0,3.0,33,0.00,,,0.03,Wunderground v.1.15,2013-05-29 19:02:00,
2013-05-29 13:08:00,66.2,36.2,29.54,SW,231,4.0,16.0,33,0.00,,,0.03,Wunderground v.1.15,2013-05-29 19:08:00,
2013-05-29 13:13:00,66.6,37.3,29.54,SW,216,4.0,5.0,34,0.00,,,0.03,Wunderground v.1.15,2013-05-29 19:13:00,
2013-05-29 13:18:00,67.6,35.9,29.53,WNW,282,3.0,7.0,31,0.00,,,0.03,Wunderground v.1.15,2013-05-29 19:18:00,
2013-05-29 13:23:00,68.8,38.5,29.53,WNW,285,3.0,4.0,33,0.00,,,0.03,Wunderground v.1.15,2013-05-29 19:23:00,
2013-05-29 13:30:00,69.4,35.7,29.53,WSW,244,2.0,2.0,29,0.00,,,0.03,Wunderground v.1.15,2013-05-29 19:30:00,
2013-05-29 13:36:00,69.6,35.0,29.53,SW,234,3.0,3.0,28,0.00,,,0.03,Wunderground v.1.15,2013-05-29 19:36:00,
2013-05-29 13:42:00,69.3,34.8,29.52,West,260,3.0,9.0,28,0.00,,,0.03,Wunderground v.1.15,2013-05-29 19:42:00,
2013-05-29 13:47:00,69.0,36.3,29.52,WNW,290,4.0,13.0,30,0.00,,,0.03,Wunderground v.1.15,2013-05-29 19:47:00,
2013-05-29 13:52:00,68.7,34.3,29.52,SW,227,4.0,9.0,28,0.00,,,0.03,Wunderground v.1.15,2013-05-29 19:52:00,
2013-05-29 13:57:00,69.4,34.9,29.52,West,276,4.0,9.0,28,0.00,,,0.03,Wunderground v.1.15,2013-05-29 19:57:00,
2013-05-29 14:04:00,70.2,35.5,29.52,WNW,286,4.0,7.0,28,0.00,,,0.03,Wunderground v.1.15,2013-05-29 20:04:00,
2013-05-29 14:10:00,71.0,35.3,29.52,South,173,4.0,7.0,27,0.00,,,0.03,Wunderground v.1.15,2013-05-29 20:10:00,
2013-05-29 14:15:00,71.3,33.6,29.51,South,169,4.0,10.0,25,0.00,,,0.03,Wunderground v.1.15,2013-05-29 20:15:00,
2013-05-29 14:21:00,71.3,31.6,29.51,WSW,240,6.0,6.0,23,0.00,,,0.03,Wunderground v.1.15,2013-05-29 20:21:00,
2013-05-29 14:27:00,70.8,33.2,29.51,SW,225,5.0,6.0,25,0.00,,,0.03,Wunderground v.1.15,2013-05-29 20:27:00,
2013-05-29 14:32:00,70.4,32.9,29.51,SW,223,4.0,5.0,25,0.00,,,0.03,Wunderground v.1.15,2013-05-29 20:32:00,
2013-05-29 14:40:00,71.7,31.9,29.51,WSW,244,4.0,10.0,23,0.00,,,0.03,Wunderground v.1.15,2013-05-29 20:40:00,
2013-05-29 14:45:00,71.9,33.1,29.50,WNW,287,4.0,7.0,24,0.00,,,0.03,Wunderground v.1.15,2013-05-29 20:45:00,
2013-05-29 14:51:00,72.1,32.2,29.50,WSW,244,4.0,7.0,23,0.00,,,0.03,Wunderground v.1.15,2013-05-29 20:51:00,
2013-05-29 14:56:00,71.8,30.9,29.50,SSW,211,4.0,6.0,22,0.00,,,0.03,Wunderground v.1.15,2013-05-29 20:56:00,
2013-05-29 15:02:00,71.2,30.4,29.51,SW,219,5.0,12.0,22,0.00,,,0.03,Wunderground v.1.15,2013-05-29 21:02:00,
2013-05-29 15:07:00,70.3,29.6,29.51,WNW,288,4.0,12.0,22,0.00,,,0.03,Wunderground v.1.15,2013-05-29 21:07:00,
2013-05-29 15:13:00,70.1,31.6,29.50,WNW,294,4.0,11.0,24,0.00,,,0.03,Wunderground v.1.15,2013-05-29 21:13:00,
2013-05-29 15:18:00,70.7,32.1,29.50,SW,234,5.0,11.0,24,0.00,,,0.03,Wunderground v.1.15,2013-05-29 21:18:00,
2013-05-29 15:24:00,71.3,31.6,29.50,SW,226,4.0,5.0,23,0.00,,,0.03,Wunderground v.1.15,2013-05-29 21:24:00,
2013-05-29 15:29:00,71.7,31.9,29.50,WNW,295,3.0,5.0,23,0.00,,,0.03,Wunderground v.1.15,2013-05-29 21:29:00,
2013-05-29 15:35:00,72.1,31.1,29.51,West,268,3.0,5.0,22,0.00,,,0.03,Wunderground v.1.15,2013-05-29 21:35:00,
2013-05-29 15:40:00,71.1,31.4,29.50,SW,230,5.0,7.0,23,0.00,,,0.03,Wunderground v.1.15,2013-05-29 21:40:00,
2013-05-29 15:45:00,70.9,31.2,29.50,South,185,5.0,14.0,23,0.00,,,0.03,Wunderground v.1.15,2013-05-29 21:45:00,
2013-05-29 15:50:00,70.9,32.3,29.50,WNW,285,5.0,14.0,24,0.00,,,0.03,Wunderground v.1.15,2013-05-29 21:50:00,
2013-05-29 15:56:00,70.8,32.2,29.50,SSW,202,5.0,8.0,24,0.00,,,0.03,Wunderground v.1.15,2013-05-29 21:56:00,
2013-05-29 16:02:00,71.8,32.0,29.50,NW,307,5.0,10.0,23,0.00,,,0.03,Wunderground v.1.15,2013-05-29 22:02:00,
2013-05-29 16:07:00,72.5,33.6,29.50,SW,224,5.0,13.0,24,0.00,,,0.03,Wunderground v.1.15,2013-05-29 22:07:00,
2013-05-29 16:12:00,72.8,33.9,29.50,NW,319,4.0,5.0,24,0.00,,,0.03,Wunderground v.1.15,2013-05-29 22:12:00,
2013-05-29 16:17:00,72.8,33.9,29.50,SW,219,4.0,9.0,24,0.00,,,0.03,Wunderground v.1.15,2013-05-29 22:17:00,
2013-05-29 16:23:00,71.5,32.8,29.50,SSW,206,7.0,15.0,24,0.00,,,0.03,Wunderground v.1.15,2013-05-29 22:23:00,
2013-05-29 16:29:00,70.4,31.9,29.50,SW,234,10.0,18.0,24,0.00,,,0.03,Wunderground v.1.15,2013-05-29 22:29:00,
2013-05-29 16:35:00,70.9,32.3,29.50,WSW,255,7.0,11.0,24,0.00,,,0.03,Wunderground v.1.15,2013-05-29 22:35:00,
2013-05-29 16:40:00,71.5,31.7,29.50,SSW,211,5.0,15.0,23,0.00,,,0.03,Wunderground v.1.15,2013-05-29 22:40:00,
2013-05-29 16:45:00,70.4,31.9,29.50,SSW,209,8.0,15.0,24,0.00,,,0.03,Wunderground v.1.15,2013-05-29 22:45:00,
2013-05-29 16:51:00,70.4,31.9,29.50,South,189,7.0,7.0,24,0.00,,,0.03,Wunderground v.1.15,2013-05-29 22:51:00,
2013-05-29 16:56:00,70.9,32.3,29.50,WNW,297,5.0,7.0,24,0.00,,,0.03,Wunderground v.1.15,2013-05-29 22:56:00,
2013-05-29 17:02:00,70.6,33.0,29.51,South,187,4.0,7.0,25,0.00,,,0.03,Wunderground v.1.15,2013-05-29 23:02:00,
2013-05-29 17:07:00,69.2,30.8,29.50,SW,234,6.0,10.0,24,0.00,,,0.03,Wunderground v.1.15,2013-05-29 23:07:00,
2013-05-29 17:13:00,69.2,31.9,29.50,West,278,5.0,6.0,25,0.00,,,0.03,Wunderground v.1.15,2013-05-29 23:13:00,
2013-05-29 17:18:00,70.4,31.9,29.50,WNW,291,3.0,6.0,24,0.00,,,0.03,Wunderground v.1.15,2013-05-29 23:18:00,
2013-05-29 17:24:00,71.2,31.5,29.50,NNW,338,4.0,12.0,23,0.00,,,0.03,Wunderground v.1.15,2013-05-29 23:24:00,
2013-05-29 17:30:00,70.7,28.8,29.50,SW,232,6.0,6.0,21,0.00,,,0.03,Wunderground v.1.15,2013-05-29 23:30:00,
2013-05-29 17:36:00,71.0,30.2,29.50,SW,227,5.0,6.0,22,0.00,,,0.03,Wunderground v.1.15,2013-05-29 23:36:00,
2013-05-29 17:42:00,71.0,29.1,29.51,WSW,246,6.0,7.0,21,0.00,,,0.03,Wunderground v.1.15,2013-05-29 23:42:00,
2013-05-29 17:47:00,70.9,30.1,29.51,WSW,244,7.0,9.0,22,0.00,,,0.03,Wunderground v.1.15,2013-05-29 23:47:00,
2013-05-29 17:52:00,71.3,30.5,29.51,SSW,192,5.0,15.0,22,0.00,,,0.03,Wunderground v.1.15,2013-05-29 23:52:00,
2013-05-29 17:57:00,71.0,29.1,29.50,SW,228,7.0,17.0,21,0.00,,,0.03,Wunderground v.1.15,2013-05-29 23:57:00,
2013-05-29 18:03:00,70.4,28.6,29.51,West,275,8.0,12.0,21,0.00,,,0.03,Wunderground v.1.15,2013-05-30 00:03:00,
2013-05-29 18:08:00,70.3,28.5,29.50,WNW,290,8.0,13.0,21,0.00,,,0.03,Wunderground v.1.15,2013-05-30 00:08:00,
2013-05-29 18:13:00,70.7,30.0,29.51,ESE,115,5.0,7.0,22,0.00,,,0.03,Wunderground v.1.15,2013-05-30 00:13:00,
2013-05-29 18:18:00,70.6,28.7,29.50,SW,227,4.0,9.0,21,0.00,,,0.03,Wunderground v.1.15,2013-05-30 00:18:00,
2013-05-29 18:23:00,70.3,29.6,29.51,SSW,207,5.0,5.0,22,0.00,,,0.03,Wunderground v.1.15,2013-05-30 00:23:00,
2013-05-29 18:28:00,69.9,29.3,29.51,SW,222,4.0,6.0,22,0.00,,,0.03,Wunderground v.1.15,2013-05-30 00:28:00,
2013-05-29 18:34:00,69.7,29.1,29.51,WNW,287,5.0,9.0,22,0.00,,,0.03,Wunderground v.1.15,2013-05-30 00:34:00,
2013-05-29 18:40:00,69.2,28.7,29.51,WSW,238,5.0,5.0,22,0.00,,,0.03,Wunderground v.1.15,2013-05-30 00:40:00,
2013-05-29 18:46:00,68.9,28.5,29.51,SW,223,4.0,5.0,22,0.00,,,0.03,Wunderground v.1.15,2013-05-30 00:46:00,
2013-05-29 18:52:00,69.1,29.7,29.51,WNW,294,3.0,3.0,23,0.00,,,0.03,Wunderground v.1.15,2013-05-30 00:52:00,
2013-05-29 18:57:00,69.1,28.6,29.51,WSW,256,2.0,4.0,22,0.00,,,0.03,Wunderground v.1.15,2013-05-30 00:57:00,
2013-05-29 19:03:00,69.0,28.5,29.51,WNW,302,3.0,3.0,22,0.00,,,0.03,Wunderground v.1.15,2013-05-30 01:03:00,
2013-05-29 19:08:00,68.9,29.5,29.51,WSW,254,3.0,5.0,23,0.00,,,0.03,Wunderground v.1.15,2013-05-30 01:08:00,
2013-05-29 19:14:00,68.7,29.4,29.51,NW,313,2.0,2.0,23,0.00,,,0.03,Wunderground v.1.15,2013-05-30 01:14:00,
2013-05-29 19:19:00,68.5,29.2,29.51,WNW,284,1.0,3.0,23,0.00,,,0.03,Wunderground v.1.15,2013-05-30 01:19:00,
2013-05-29 19:26:00,68.3,29.0,29.51,SW,219,2.0,4.0,23,0.00,,,0.03,Wunderground v.1.15,2013-05-30 01:26:00,
2013-05-29 19:31:00,68.1,27.8,29.51,SW,214,3.0,13.0,22,0.00,,,0.03,Wunderground v.1.15,2013-05-30 01:31:00,
2013-05-29 19:37:00,68.1,27.8,29.51,SW,230,5.0,13.0,22,0.00,,,0.03,Wunderground v.1.15,2013-05-30 01:37:00,
2013-05-29 19:43:00,68.0,27.7,29.51,WNW,289,4.0,6.0,22,0.00,,,0.03,Wunderground v.1.15,2013-05-30 01:43:00,
2013-05-29 19:48:00,67.9,27.6,29.51,SW,217,3.0,6.0,22,0.00,,,0.03,Wunderground v.1.15,2013-05-30 01:48:00,
2013-05-29 19:54:00,67.7,27.5,29.51,West,262,2.0,6.0,22,0.00,,,0.03,Wunderground v.1.15,2013-05-30 01:54:00,
2013-05-29 19:59:00,67.6,27.4,29.51,SW,234,2.0,6.0,22,0.00,,,0.03,Wunderground v.1.15,2013-05-30 01:59:00,
2013-05-29 20:05:00,67.7,26.3,29.51,SW,226,3.0,5.0,21,0.00,,,0.03,Wunderground v.1.15,2013-05-30 02:05:00,
2013-05-29 20:10:00,67.8,27.5,29.52,WSW,252,4.0,7.0,22,0.00,,,0.03,Wunderground v.1.15,2013-05-30 02:10:00,
2013-05-29 20:16:00,67.7,26.3,29.52,SW,229,4.0,7.0,21,0.00,,,0.03,Wunderground v.1.15,2013-05-30 02:16:00,
2013-05-29 20:21:00,67.7,26.3,29.52,SW,221,5.0,5.0,21,0.00,,,0.03,Wunderground v.1.15,2013-05-30 02:21:00,
2013-05-29 20:26:00,67.5,26.2,29.52,SSW,207,4.0,9.0,21,0.00,,,0.03,Wunderground v.1.15,2013-05-30 02:26:00,
2013-05-29 20:31:00,67.3,26.0,29.52,SW,219,3.0,4.0,21,0.00,,,0.03,Wunderground v.1.15,2013-05-30 02:31:00,
2013-05-29 20:36:00,67.1,25.8,29.53,SW,218,2.0,4.0,21,0.00,,,0.03,Wunderground v.1.15,2013-05-30 02:36:00,
2013-05-29 20:42:00,66.9,26.8,29.53,WSW,238,3.0,3.0,22,0.00,,,0.03,Wunderground v.1.15,2013-05-30 02:42:00,
2013-05-29 20:47:00,66.7,26.6,29.53,SW,230,3.0,5.0,22,0.00,,,0.03,Wunderground v.1.15,2013-05-30 02:47:00,
2013-05-29 20:52:00,66.7,26.6,29.54,SW,225,3.0,3.0,22,0.00,,,0.03,Wunderground v.1.15,2013-05-30 02:52:00,
2013-05-29 20:58:00,66.5,26.4,29.54,SW,215,3.0,6.0,22,0.00,,,0.03,Wunderground v.1.15,2013-05-30 02:58:00,
2013-05-29 21:03:00,66.5,26.4,29.54,SSW,207,3.0,6.0,22,0.00,,,0.03,Wunderground v.1.15,2013-05-30 03:03:00,
2013-05-29 21:09:00,66.3,26.3,29.54,WNW,302,2.0,6.0,22,0.00,,,0.03,Wunderground v.1.15,2013-05-30 03:09:00,
2013-05-29 21:14:00,66.1,26.1,29.55,NNW,327,2.0,4.0,22,0.00,,,0.03,Wunderground v.1.15,2013-05-30 03:14:00,
2013-05-29 21:20:00,65.3,28.5,29.55,WNW,290,2.0,2.0,25,0.00,,,0.03,Wunderground v.1.15,2013-05-30 03:20:00,
2013-05-29 21:25:00,64.4,28.7,29.56,NW,310,3.0,4.0,26,0.00,,,0.03,Wunderground v.1.15,2013-05-30 03:25:00,
2013-05-29 21:31:00,63.6,29.0,29.56,NW,311,2.0,3.0,27,0.00,,,0.03,Wunderground v.1.15,2013-05-30 03:31:00,
2013-05-29 21:36:00,63.0,29.4,29.57,WNW,292,1.0,6.0,28,0.00,,,0.03,Wunderground v.1.15,2013-05-30 03:36:00,
2013-05-29 21:41:00,62.6,30.7,29.57,WNW,294,1.0,1.0,30,0.00,,,0.03,Wunderground v.1.15,2013-05-30 03:41:00,
2013-05-29 21:46:00,62.3,31.3,29.58,SW,228,1.0,3.0,31,0.00,,,0.03,Wunderground v.1.15,2013-05-30 03:46:00,
2013-05-29 21:52:00,62.1,31.1,29.58,WSW,251,1.0,1.0,31,0.00,,,0.03,Wunderground v.1.15,2013-05-30 03:52:00,
2013-05-29 21:57:00,61.9,30.1,29.58,WSW,252,0.0,1.0,30,0.00,,,0.03,Wunderground v.1.15,2013-05-30 03:57:00,
2013-05-29 22:02:00,61.5,30.6,29.58,WSW,252,0.0,2.0,31,0.00,,,0.03,Wunderground v.1.15,2013-05-30 04:02:00,
2013-05-29 22:04:00,61.4,30.5,29.58,WSW,252,0.0,2.0,31,0.00,,,0.03,Wunderground v.1.15,2013-05-30 04:04:00,
2013-05-29 22:09:00,61.2,31.1,29.59,West,261,0.0,2.0,32,0.00,,,0.03,Wunderground v.1.15,2013-05-30 04:09:00,
2013-05-29 22:11:00,61.1,30.2,29.58,West,261,0.0,0.0,31,0.00,,,0.03,Wunderground v.1.15,2013-05-30 04:11:00,
2013-05-29 22:16:00,61.0,30.9,29.59,West,261,0.0,1.0,32,0.00,,,0.03,Wunderground v.1.15,2013-05-30 04:16:00,
2013-05-29 22:22:00,61.2,30.3,29.59,WSW,241,0.0,2.0,31,0.00,,,0.03,Wunderground v.1.15,2013-05-30 04:22:00,
2013-05-29 22:28:00,61.6,30.6,29.59,West,267,1.0,3.0,31,0.00,,,0.03,Wunderground v.1.15,2013-05-30 04:28:00,
2013-05-29 22:33:00,61.8,30.8,29.59,West,267,0.0,1.0,31,0.00,,,0.03,Wunderground v.1.15,2013-05-30 04:33:00,
2013-05-29 22:38:00,61.7,30.7,29.60,West,267,0.0,1.0,31,0.00,,,0.03,Wunderground v.1.15,2013-05-30 04:38:00,
2013-05-29 22:44:00,61.4,30.5,29.60,West,267,0.0,1.0,31,0.00,,,0.03,Wunderground v.1.15,2013-05-30 04:44:00,
2013-05-29 22:48:00,61.2,30.3,29.60,West,267,0.0,1.0,31,0.00,,,0.03,Wunderground v.1.15,2013-05-30 04:48:00,
2013-05-29 22:54:00,61.3,30.4,29.60,SW,224,1.0,2.0,31,0.00,,,0.03,Wunderground v.1.15,2013-05-30 04:54:00,
2013-05-29 22:59:00,61.7,30.7,29.60,SW,224,1.0,2.0,31,0.00,,,0.03,Wunderground v.1.15,2013-05-30 04:59:00,
2013-05-29 23:05:00,61.9,29.3,29.60,WSW,240,1.0,4.0,29,0.00,,,0.03,Wunderground v.1.15,2013-05-30 05:05:00,
2013-05-29 23:11:00,62.7,29.1,29.60,SW,231,2.0,2.0,28,0.00,,,0.03,Wunderground v.1.15,2013-05-30 05:11:00,
2013-05-29 23:17:00,63.1,29.4,29.60,SW,236,1.0,6.0,28,0.00,,,0.03,Wunderground v.1.15,2013-05-30 05:17:00,
2013-05-29 23:24:00,63.2,29.5,29.60,SW,234,1.0,1.0,28,0.00,,,0.03,Wunderground v.1.15,2013-05-30 05:24:00,
2013-05-29 23:30:00,62.7,32.4,29.60,SW,234,0.0,0.0,32,0.00,,,0.03,Wunderground v.1.15,2013-05-30 05:30:00,
2013-05-29 23:36:00,61.6,30.6,29.60,SW,234,0.0,0.0,31,0.00,,,0.03,Wunderground v.1.15,2013-05-30 05:36:00,
2013-05-29 23:41:00,60.7,30.6,29.60,SW,234,0.0,0.0,32,0.00,,,0.03,Wunderground v.1.15,2013-05-30 05:41:00,
2013-05-29 23:47:00,59.9,29.9,29.61,SW,234,0.0,0.0,32,0.00,,,0.03,Wunderground v.1.15,2013-05-30 05:47:00,
2013-05-29 23:53:00,59.0,29.9,29.61,SW,234,0.0,0.0,33,0.00,,,0.03,Wunderground v.1.15,2013-05-30 05:53:00,
2013-05-29 23:58:00,58.7,30.4,29.60,SW,234,0.0,0.0,34,0.00,,,0.03,Wunderground v.1.15,2013-05-30 05:58:00,